Time,TemperatureF,DewpointF,PressureIn,WindDirection,WindDirectionDegrees,WindSpeedMPH,WindSpeedGustMPH,Humidity,HourlyPrecipIn,Conditions,Clouds,dailyrainin,SoftwareType,DateUTC
2013-07-02 00:01:00,72.2,71.0,29.98,SSW,202,4.0,4.0,96,0.00,,,0.00,Wunderground v.1.15,2013-07-02 04:01:00,
2013-07-02 00:02:00,72.2,71.0,29.98,SSW,202,4.0,4.0,96,0.00,,,0.00,Wunderground v.1.15,2013-07-02 04:02:00,
2013-07-02 00:04:00,72.2,71.0,29.99,SSW,205,4.0,5.0,96,0.00,,,0.00,Wunderground v.1.15,2013-07-02 04:04:00,
2013-07-02 00:08:00,72.2,71.0,29.99,SSW,204,4.0,5.0,96,0.00,,,0.00,Wunderground v.1.15,2013-07-02 04:08:00,
2013-07-02 00:09:00,72.2,71.0,29.99,SSW,204,4.0,5.0,96,0.00,,,0.00,Wunderground v.1.15,2013-07-02 04:09:00,
2013-07-02 00:14:00,72.2,71.0,29.99,SSW,198,3.0,5.0,96,0.00,,,0.00,Wunderground v.1.15,2013-07-02 04:14:00,
2013-07-02 00:20:00,72.3,71.1,29.99,SSW,210,4.0,4.0,96,0.00,,,0.00,Wunderground v.1.15,2013-07-02 04:20:00,
2013-07-02 00:26:00,72.2,71.0,29.98,SSW,206,3.0,4.0,96,0.00,,,0.00,Wunderground v.1.15,2013-07-02 04:26:00,
2013-07-02 00:32:00,72.2,71.0,29.98,SSW,204,3.0,8.0,96,0.00,,,0.00,Wunderground v.1.15,2013-07-02 04:32:00,
2013-07-02 00:38:00,72.2,71.0,29.98,SSW,204,2.0,8.0,96,0.00,,,0.00,Wunderground v.1.15,2013-07-02 04:38:00,
2013-07-02 00:44:00,72.2,71.0,29.99,SSW,204,2.0,8.0,96,0.00,,,0.00,Wunderground v.1.15,2013-07-02 04:44:00,
2013-07-02 00:50:00,72.2,71.0,29.99,SSW,199,3.0,8.0,96,0.00,,,0.00,Wunderground v.1.15,2013-07-02 04:50:00,
2013-07-02 00:56:00,72.2,71.0,29.99,SSW,201,4.0,8.0,96,0.00,,,0.00,Wunderground v.1.15,2013-07-02 04:56:00,
2013-07-02 01:02:00,72.2,71.0,29.99,SSW,197,4.0,6.0,96,0.00,,,0.00,Wunderground v.1.15,2013-07-02 05:02:00,
2013-07-02 01:07:00,72.2,71.0,29.99,South,180,4.0,6.0,96,0.00,,,0.00,Wunderground v.1.15,2013-07-02 05:07:00,
2013-07-02 01:13:00,72.1,70.9,29.99,SSW,205,4.0,6.0,96,0.00,,,0.00,Wunderground v.1.15,2013-07-02 05:13:00,
2013-07-02 01:19:00,72.1,70.9,29.99,SSW,199,4.0,6.0,96,0.00,,,0.00,Wunderground v.1.15,2013-07-02 05:19:00,
2013-07-02 01:25:00,72.1,70.9,29.99,SSW,192,4.0,5.0,96,0.00,,,0.00,Wunderground v.1.15,2013-07-02 05:25:00,
2013-07-02 01:31:00,72.1,70.9,29.99,SSW,206,4.0,6.0,96,0.00,,,0.00,Wunderground v.1.15,2013-07-02 05:31:00,
2013-07-02 01:37:00,72.0,70.8,29.99,SSW,205,4.0,6.0,96,0.00,,,0.00,Wunderground v.1.15,2013-07-02 05:37:00,
2013-07-02 01:43:00,72.0,70.5,29.99,SSW,195,5.0,10.0,95,0.00,,,0.00,Wunderground v.1.15,2013-07-02 05:43:00,
2013-07-02 01:48:00,72.0,70.5,29.99,SSW,208,6.0,13.0,95,0.00,,,0.00,Wunderground v.1.15,2013-07-02 05:48:00,
2013-07-02 01:54:00,72.0,70.5,29.98,South,169,7.0,12.0,95,0.00,,,0.00,Wunderground v.1.15,2013-07-02 05:54:00,
2013-07-02 02:00:00,72.0,70.5,29.98,SSW,200,7.0,7.0,95,0.00,,,0.00,Wunderground v.1.15,2013-07-02 06:00:00,
2013-07-02 02:06:00,72.0,70.2,29.98,South,190,8.0,9.0,94,0.00,,,0.00,Wunderground v.1.15,2013-07-02 06:06:00,
2013-07-02 02:12:00,72.0,70.2,29.99,SW,215,7.0,9.0,94,0.00,,,0.00,Wunderground v.1.15,2013-07-02 06:12:00,
2013-07-02 02:18:00,72.0,70.2,29.99,SSW,203,7.0,10.0,94,0.00,,,0.00,Wunderground v.1.15,2013-07-02 06:18:00,
2013-07-02 02:24:00,71.9,70.1,29.99,SSW,192,8.0,8.0,94,0.00,,,0.00,Wunderground v.1.15,2013-07-02 06:24:00,
2013-07-02 02:29:00,71.8,70.0,29.99,SSW,213,7.0,9.0,94,0.00,,,0.00,Wunderground v.1.15,2013-07-02 06:29:00,
2013-07-02 02:35:00,71.8,70.0,29.99,SSW,207,8.0,9.0,94,0.00,,,0.00,Wunderground v.1.15,2013-07-02 06:35:00,
2013-07-02 02:41:00,71.8,70.3,29.99,SSW,211,8.0,9.0,95,0.00,,,0.00,Wunderground v.1.15,2013-07-02 06:41:00,
2013-07-02 02:47:00,71.7,70.2,29.99,SSW,195,7.0,9.0,95,0.00,,,0.00,Wunderground v.1.15,2013-07-02 06:47:00,
2013-07-02 02:53:00,71.7,70.2,29.99,South,188,7.0,9.0,95,0.00,,,0.00,Wunderground v.1.15,2013-07-02 06:53:00,
2013-07-02 02:59:00,71.7,70.2,29.99,SSW,198,7.0,9.0,95,0.00,,,0.00,Wunderground v.1.15,2013-07-02 06:59:00,
2013-07-02 03:05:00,71.7,70.2,30.00,SSW,208,6.0,8.0,95,0.00,,,0.00,Wunderground v.1.15,2013-07-02 07:05:00,
2013-07-02 03:11:00,71.8,70.3,29.99,SSW,194,7.0,9.0,95,0.00,,,0.00,Wunderground v.1.15,2013-07-02 07:11:00,
2013-07-02 03:17:00,71.7,70.2,29.99,SSW,195,8.0,11.0,95,0.00,,,0.00,Wunderground v.1.15,2013-07-02 07:17:00,
2013-07-02 03:23:00,71.7,70.2,30.00,SSW,196,7.0,9.0,95,0.00,,,0.00,Wunderground v.1.15,2013-07-02 07:23:00,
2013-07-02 03:28:00,71.6,70.1,30.00,SW,215,7.0,12.0,95,0.00,,,0.00,Wunderground v.1.15,2013-07-02 07:28:00,
2013-07-02 03:34:00,71.6,70.1,30.00,South,180,6.0,14.0,95,0.00,,,0.00,Wunderground v.1.15,2013-07-02 07:34:00,
2013-07-02 03:40:00,71.6,70.1,30.00,SSW,204,6.0,14.0,95,0.00,,,0.00,Wunderground v.1.15,2013-07-02 07:40:00,
2013-07-02 03:46:00,71.6,70.1,30.00,SSW,211,6.0,14.0,95,0.00,,,0.00,Wunderground v.1.15,2013-07-02 07:46:00,
2013-07-02 03:52:00,71.6,70.1,30.00,South,186,5.0,14.0,95,0.00,,,0.00,Wunderground v.1.15,2013-07-02 07:52:00,
2013-07-02 03:58:00,71.6,70.1,30.01,SSW,196,4.0,14.0,95,0.00,,,0.00,Wunderground v.1.15,2013-07-02 07:58:00,
2013-07-02 04:04:00,71.6,70.4,30.01,SSW,194,4.0,6.0,96,0.00,,,0.00,Wunderground v.1.15,2013-07-02 08:04:00,
2013-07-02 04:09:00,71.5,70.3,30.01,SSW,203,4.0,6.0,96,0.00,,,0.00,Wunderground v.1.15,2013-07-02 08:09:00,
2013-07-02 04:15:00,71.5,70.0,30.01,South,180,4.0,8.0,95,0.00,,,0.00,Wunderground v.1.15,2013-07-02 08:15:00,
2013-07-02 04:21:00,71.5,70.0,30.01,South,184,5.0,5.0,95,0.00,,,0.00,Wunderground v.1.15,2013-07-02 08:21:00,
2013-07-02 04:27:00,71.5,70.0,30.01,SSW,193,5.0,6.0,95,0.00,,,0.00,Wunderground v.1.15,2013-07-02 08:27:00,
2013-07-02 04:33:00,71.4,70.2,30.01,SSW,201,5.0,15.0,96,0.00,,,0.00,Wunderground v.1.15,2013-07-02 08:33:00,
2013-07-02 04:39:00,71.4,70.2,30.01,SSW,202,5.0,15.0,96,0.00,,,0.00,Wunderground v.1.15,2013-07-02 08:39:00,
2013-07-02 04:45:00,71.4,70.2,30.01,SSE,167,5.0,15.0,96,0.00,,,0.00,Wunderground v.1.15,2013-07-02 08:45:00,
2013-07-02 04:50:00,71.4,70.2,30.02,SSW,213,4.0,15.0,96,0.00,,,0.00,Wunderground v.1.15,2013-07-02 08:50:00,
2013-07-02 04:56:00,71.4,70.2,30.02,SSW,209,5.0,15.0,96,0.00,,,0.00,Wunderground v.1.15,2013-07-02 08:56:00,
2013-07-02 05:02:00,71.5,70.3,30.02,SSW,193,5.0,8.0,96,0.00,,,0.00,Wunderground v.1.15,2013-07-02 09:02:00,
2013-07-02 05:08:00,71.5,70.3,30.02,South,182,5.0,8.0,96,0.00,,,0.00,Wunderground v.1.15,2013-07-02 09:08:00,
2013-07-02 05:14:00,71.6,70.4,30.02,South,191,4.0,7.0,96,0.00,,,0.00,Wunderground v.1.15,2013-07-02 09:14:00,
2013-07-02 05:20:00,71.6,70.4,30.02,South,187,5.0,7.0,96,0.00,,,0.00,Wunderground v.1.15,2013-07-02 09:20:00,
2013-07-02 05:26:00,71.6,70.4,30.02,SSW,192,4.0,7.0,96,0.00,,,0.00,Wunderground v.1.15,2013-07-02 09:26:00,
2013-07-02 05:32:00,71.7,70.5,30.02,SSW,209,5.0,10.0,96,0.00,,,0.00,Wunderground v.1.15,2013-07-02 09:32:00,
2013-07-02 05:38:00,71.7,70.5,30.03,SSW,203,5.0,10.0,96,0.00,,,0.00,Wunderground v.1.15,2013-07-02 09:38:00,
2013-07-02 05:43:00,71.8,70.6,30.03,SSW,205,5.0,10.0,96,0.00,,,0.00,Wunderground v.1.15,2013-07-02 09:43:00,
2013-07-02 05:49:00,71.8,70.6,30.03,South,173,5.0,10.0,96,0.00,,,0.00,Wunderground v.1.15,2013-07-02 09:49:00,
2013-07-02 05:55:00,71.8,70.6,30.03,SSE,165,5.0,10.0,96,0.00,,,0.00,Wunderground v.1.15,2013-07-02 09:55:00,
2013-07-02 06:00:00,71.9,70.7,30.03,SW,214,5.0,5.0,96,0.00,,,0.00,Wunderground v.1.15,2013-07-02 10:00:00,
2013-07-02 06:06:00,71.9,70.7,30.03,South,188,5.0,5.0,96,0.00,,,0.00,Wunderground v.1.15,2013-07-02 10:06:00,
2013-07-02 06:12:00,71.9,70.7,30.04,SSW,206,4.0,6.0,96,0.00,,,0.00,Wunderground v.1.15,2013-07-02 10:12:00,
2013-07-02 06:17:00,71.9,70.7,30.04,SSW,197,5.0,7.0,96,0.00,,,0.00,Wunderground v.1.15,2013-07-02 10:17:00,
2013-07-02 06:23:00,72.0,70.8,30.04,South,171,5.0,7.0,96,0.00,,,0.00,Wunderground v.1.15,2013-07-02 10:23:00,
2013-07-02 06:29:00,72.0,70.8,30.04,South,169,5.0,12.0,96,0.00,,,0.00,Wunderground v.1.15,2013-07-02 10:29:00,
2013-07-02 06:35:00,72.0,70.8,30.04,SSW,205,5.0,10.0,96,0.00,,,0.00,Wunderground v.1.15,2013-07-02 10:35:00,
2013-07-02 06:41:00,72.1,70.9,30.05,SSW,193,4.0,5.0,96,0.00,,,0.00,Wunderground v.1.15,2013-07-02 10:41:00,
2013-07-02 06:47:00,72.1,70.9,30.05,South,182,4.0,10.0,96,0.00,,,0.00,Wunderground v.1.15,2013-07-02 10:47:00,
2013-07-02 06:53:00,72.1,70.9,30.05,SSW,193,5.0,10.0,96,0.00,,,0.00,Wunderground v.1.15,2013-07-02 10:53:00,
2013-07-02 06:59:00,72.2,71.0,30.05,SSW,200,4.0,10.0,96,0.00,,,0.00,Wunderground v.1.15,2013-07-02 10:59:00,
2013-07-02 07:05:00,72.2,71.0,30.05,South,171,3.0,4.0,96,0.00,,,0.00,Wunderground v.1.15,2013-07-02 11:05:00,
2013-07-02 07:11:00,72.3,71.1,30.05,South,169,3.0,7.0,96,0.00,,,0.00,Wunderground v.1.15,2013-07-02 11:11:00,
2013-07-02 07:16:00,72.4,71.2,30.05,SSW,202,4.0,7.0,96,0.00,,,0.00,Wunderground v.1.15,2013-07-02 11:16:00,
2013-07-02 07:22:00,72.4,71.2,30.06,SSW,205,4.0,4.0,96,0.00,,,0.00,Wunderground v.1.15,2013-07-02 11:22:00,
2013-07-02 07:28:00,72.5,71.3,30.06,SSW,205,3.0,5.0,96,0.00,,,0.00,Wunderground v.1.15,2013-07-02 11:28:00,
2013-07-02 07:34:00,72.5,71.3,30.06,SW,219,3.0,12.0,96,0.00,,,0.00,Wunderground v.1.15,2013-07-02 11:34:00,
2013-07-02 07:40:00,72.5,71.0,30.06,SSE,155,4.0,4.0,95,0.00,,,0.00,Wunderground v.1.15,2013-07-02 11:40:00,
2013-07-02 07:46:00,72.6,71.1,30.06,South,188,4.0,12.0,95,0.00,,,0.00,Wunderground v.1.15,2013-07-02 11:46:00,
2013-07-02 07:51:00,72.6,71.1,30.07,SSE,159,4.0,5.0,95,0.00,,,0.00,Wunderground v.1.15,2013-07-02 11:51:00,
2013-07-02 07:57:00,72.7,71.2,30.07,SSW,202,4.0,12.0,95,0.00,,,0.00,Wunderground v.1.15,2013-07-02 11:57:00,
2013-07-02 08:03:00,72.7,71.2,30.07,SSW,196,4.0,5.0,95,0.00,,,0.00,Wunderground v.1.15,2013-07-02 12:03:00,
2013-07-02 08:09:00,72.7,71.2,30.07,SSW,201,5.0,10.0,95,0.00,,,0.00,Wunderground v.1.15,2013-07-02 12:09:00,
2013-07-02 08:15:00,72.7,71.2,30.08,South,174,5.0,6.0,95,0.00,,,0.00,Wunderground v.1.15,2013-07-02 12:15:00,
2013-07-02 08:21:00,72.7,71.2,30.08,South,184,4.0,4.0,95,0.00,,,0.00,Wunderground v.1.15,2013-07-02 12:21:00,
2013-07-02 08:27:00,72.8,71.3,30.08,SSE,163,4.0,14.0,95,0.00,,,0.00,Wunderground v.1.15,2013-07-02 12:27:00,
2013-07-02 08:33:00,72.8,71.3,30.08,SSW,207,4.0,9.0,95,0.00,,,0.00,Wunderground v.1.15,2013-07-02 12:33:00,
2013-07-02 08:38:00,72.9,71.4,30.08,SSW,194,4.0,9.0,95,0.00,,,0.00,Wunderground v.1.15,2013-07-02 12:38:00,
2013-07-02 08:44:00,72.9,71.7,30.08,SSW,194,4.0,10.0,96,0.00,,,0.00,Wunderground v.1.15,2013-07-02 12:44:00,
2013-07-02 08:50:00,73.0,71.8,30.08,South,172,5.0,9.0,96,0.00,,,0.00,Wunderground v.1.15,2013-07-02 12:50:00,
2013-07-02 08:56:00,73.1,71.9,30.08,SW,224,5.0,9.0,96,0.00,,,0.00,Wunderground v.1.15,2013-07-02 12:56:00,
2013-07-02 09:02:00,73.2,71.7,30.08,South,170,5.0,8.0,95,0.00,,,0.00,Wunderground v.1.15,2013-07-02 13:02:00,
2013-07-02 09:08:00,73.3,71.8,30.09,South,186,5.0,8.0,95,0.00,,,0.00,Wunderground v.1.15,2013-07-02 13:08:00,
2013-07-02 09:14:00,73.4,71.9,30.09,SSW,202,6.0,7.0,95,0.00,,,0.00,Wunderground v.1.15,2013-07-02 13:14:00,
2013-07-02 09:20:00,73.5,72.0,30.09,SSW,196,5.0,5.0,95,0.00,,,0.00,Wunderground v.1.15,2013-07-02 13:20:00,
2013-07-02 09:26:00,73.7,72.2,30.09,South,182,4.0,12.0,95,0.00,,,0.00,Wunderground v.1.15,2013-07-02 13:26:00,
2013-07-02 09:32:00,73.8,72.3,30.09,SSW,201,4.0,16.0,95,0.00,,,0.00,Wunderground v.1.15,2013-07-02 13:32:00,
2013-07-02 09:37:00,73.8,72.3,30.09,South,188,4.0,16.0,95,0.00,,,0.00,Wunderground v.1.15,2013-07-02 13:37:00,
2013-07-02 09:43:00,73.8,72.3,30.09,South,171,3.0,16.0,95,0.00,,,0.00,Wunderground v.1.15,2013-07-02 13:43:00,
2013-07-02 09:49:00,73.8,72.3,30.09,SSW,205,3.0,16.0,95,0.00,,,0.00,Wunderground v.1.15,2013-07-02 13:49:00,
2013-07-02 09:55:00,73.9,72.7,30.09,SSW,195,3.0,16.0,96,0.00,,,0.00,Wunderground v.1.15,2013-07-02 13:55:00,
2013-07-02 10:00:00,73.9,72.7,30.09,SSW,207,3.0,3.0,96,0.00,,,0.00,Wunderground v.1.15,2013-07-02 14:00:00,
2013-07-02 10:06:00,73.9,72.4,30.09,SW,220,4.0,6.0,95,0.00,,,0.00,Wunderground v.1.15,2013-07-02 14:06:00,
2013-07-02 10:12:00,74.0,72.8,30.09,South,169,3.0,6.0,96,0.00,,,0.01,Wunderground v.1.15,2013-07-02 14:12:00,
2013-07-02 10:18:00,74.1,72.9,30.09,South,172,2.0,6.0,96,0.00,,,0.01,Wunderground v.1.15,2013-07-02 14:18:00,
2013-07-02 10:23:00,74.2,73.0,30.08,SE,142,2.0,5.0,96,0.00,,,0.01,Wunderground v.1.15,2013-07-02 14:23:00,
2013-07-02 10:29:00,74.4,73.2,30.09,South,191,3.0,7.0,96,0.00,,,0.01,Wunderground v.1.15,2013-07-02 14:29:00,
2013-07-02 10:35:00,74.7,73.2,30.08,ESE,119,3.0,14.0,95,0.00,,,0.01,Wunderground v.1.15,2013-07-02 14:35:00,
2013-07-02 10:41:00,74.6,72.8,30.08,SSE,151,3.0,14.0,94,0.00,,,0.01,Wunderground v.1.15,2013-07-02 14:41:00,
2013-07-02 10:47:00,74.7,72.9,30.08,SSW,206,4.0,14.0,94,0.00,,,0.01,Wunderground v.1.15,2013-07-02 14:47:00,
2013-07-02 10:53:00,74.7,72.5,30.07,SSW,206,4.0,14.0,93,0.00,,,0.01,Wunderground v.1.15,2013-07-02 14:53:00,
2013-07-02 10:59:00,74.5,72.0,30.08,SSW,212,5.0,14.0,92,0.00,,,0.01,Wunderground v.1.15,2013-07-02 14:59:00,
2013-07-02 11:05:00,74.5,72.3,30.08,SSW,211,6.0,7.0,93,0.00,,,0.01,Wunderground v.1.15,2013-07-02 15:05:00,
2013-07-02 11:11:00,74.5,72.3,30.09,SSW,211,5.0,10.0,93,0.00,,,0.01,Wunderground v.1.15,2013-07-02 15:11:00,
2013-07-02 11:16:00,74.5,72.3,30.09,SW,218,6.0,10.0,93,0.00,,,0.01,Wunderground v.1.15,2013-07-02 15:16:00,
2013-07-02 11:22:00,74.4,72.6,30.09,SSW,211,5.0,7.0,94,0.00,,,0.02,Wunderground v.1.15,2013-07-02 15:22:00,
2013-07-02 11:28:00,74.0,72.2,30.09,SSW,198,6.0,10.0,94,0.20,,,0.04,Wunderground v.1.15,2013-07-02 15:28:00,
2013-07-02 11:34:00,73.9,72.4,30.10,South,184,8.0,9.0,95,0.07,,,0.04,Wunderground v.1.15,2013-07-02 15:34:00,
2013-07-02 11:40:00,73.6,72.1,30.10,SW,229,8.0,13.0,95,0.25,,,0.06,Wunderground v.1.15,2013-07-02 15:40:00,
2013-07-02 11:46:00,73.5,72.3,30.11,SSW,211,7.0,13.0,96,0.19,,,0.08,Wunderground v.1.15,2013-07-02 15:46:00,
2013-07-02 11:52:00,73.3,72.1,30.11,SSW,203,6.0,8.0,96,0.07,,,0.08,Wunderground v.1.15,2013-07-02 15:52:00,
2013-07-02 11:58:00,73.3,71.8,30.12,SSW,204,7.0,11.0,95,0.04,,,0.08,Wunderground v.1.15,2013-07-02 15:58:00,
2013-07-02 12:04:00,73.4,72.2,30.12,SSW,210,8.0,10.0,96,0.00,,,0.08,Wunderground v.1.15,2013-07-02 16:04:00,
2013-07-02 12:09:00,73.8,72.6,30.12,SSW,202,7.0,13.0,96,0.00,,,0.08,Wunderground v.1.15,2013-07-02 16:09:00,
2013-07-02 12:15:00,74.0,72.5,30.12,SW,221,7.0,8.0,95,0.00,,,0.08,Wunderground v.1.15,2013-07-02 16:15:00,
2013-07-02 12:21:00,74.1,72.6,30.11,South,179,6.0,6.0,95,0.00,,,0.08,Wunderground v.1.15,2013-07-02 16:21:00,
2013-07-02 12:27:00,74.1,71.9,30.12,South,180,5.0,8.0,93,0.00,,,0.08,Wunderground v.1.15,2013-07-02 16:27:00,
2013-07-02 12:33:00,74.1,72.3,30.12,SSW,194,5.0,15.0,94,0.00,,,0.08,Wunderground v.1.15,2013-07-02 16:33:00,
2013-07-02 12:39:00,73.9,72.1,30.12,South,169,5.0,15.0,94,0.00,,,0.08,Wunderground v.1.15,2013-07-02 16:39:00,
2013-07-02 12:45:00,74.0,72.5,30.12,SSW,202,6.0,15.0,95,0.00,,,0.08,Wunderground v.1.15,2013-07-02 16:45:00,
2013-07-02 12:50:00,73.9,72.1,30.12,South,180,6.0,15.0,94,0.00,,,0.08,Wunderground v.1.15,2013-07-02 16:50:00,
2013-07-02 12:56:00,73.9,72.1,30.12,South,183,5.0,15.0,94,0.00,,,0.08,Wunderground v.1.15,2013-07-02 16:56:00,
2013-07-02 13:02:00,73.9,72.1,30.12,South,172,5.0,5.0,94,0.00,,,0.08,Wunderground v.1.15,2013-07-02 17:02:00,
2013-07-02 13:08:00,74.1,72.6,30.12,SSW,195,4.0,6.0,95,0.00,,,0.08,Wunderground v.1.15,2013-07-02 17:08:00,
2013-07-02 13:14:00,74.8,73.3,30.11,SSW,212,3.0,6.0,95,0.00,,,0.08,Wunderground v.1.15,2013-07-02 17:14:00,
2013-07-02 13:20:00,75.2,73.4,30.11,SSE,159,4.0,5.0,94,0.00,,,0.08,Wunderground v.1.15,2013-07-02 17:20:00,
2013-07-02 13:26:00,75.6,73.8,30.11,SSE,166,4.0,6.0,94,0.00,,,0.08,Wunderground v.1.15,2013-07-02 17:26:00,
2013-07-02 13:32:00,75.8,73.6,30.11,SSW,205,4.0,13.0,93,0.00,,,0.08,Wunderground v.1.15,2013-07-02 17:32:00,
2013-07-02 13:38:00,76.2,74.0,30.11,SSW,198,4.0,13.0,93,0.00,,,0.08,Wunderground v.1.15,2013-07-02 17:38:00,
2013-07-02 13:44:00,76.2,73.7,30.11,South,178,4.0,13.0,92,0.00,,,0.08,Wunderground v.1.15,2013-07-02 17:44:00,
2013-07-02 13:49:00,76.0,73.5,30.11,South,185,3.0,13.0,92,0.00,,,0.08,Wunderground v.1.15,2013-07-02 17:49:00,
2013-07-02 13:55:00,75.8,73.3,30.10,SSE,155,3.0,13.0,92,0.00,,,0.08,Wunderground v.1.15,2013-07-02 17:55:00,
2013-07-02 14:00:00,75.9,73.4,30.10,SE,127,3.0,3.0,92,0.00,,,0.08,Wunderground v.1.15,2013-07-02 18:00:00,
2013-07-02 14:06:00,76.1,73.6,30.11,SW,218,3.0,5.0,92,0.00,,,0.08,Wunderground v.1.15,2013-07-02 18:06:00,
2013-07-02 14:12:00,76.1,73.9,30.11,SSW,196,4.0,6.0,93,0.00,,,0.08,Wunderground v.1.15,2013-07-02 18:12:00,
2013-07-02 14:18:00,76.2,73.7,30.11,SSE,161,4.0,6.0,92,0.00,,,0.08,Wunderground v.1.15,2013-07-02 18:18:00,
2013-07-02 14:24:00,76.3,73.8,30.11,SSW,205,3.0,5.0,92,0.00,,,0.08,Wunderground v.1.15,2013-07-02 18:24:00,
2013-07-02 14:30:00,76.3,73.8,30.12,SSW,192,3.0,3.0,92,0.00,,,0.08,Wunderground v.1.15,2013-07-02 18:30:00,
2013-07-02 14:36:00,76.4,73.9,30.12,SSW,196,4.0,9.0,92,0.00,,,0.08,Wunderground v.1.15,2013-07-02 18:36:00,
2013-07-02 14:42:00,76.4,73.9,30.12,SW,223,3.0,9.0,92,0.00,,,0.09,Wunderground v.1.15,2013-07-02 18:42:00,
2013-07-02 14:48:00,76.2,73.7,30.12,SSW,207,3.0,9.0,92,0.09,,,0.10,Wunderground v.1.15,2013-07-02 18:48:00,
2013-07-02 14:54:00,75.8,73.6,30.13,SSW,209,4.0,9.0,93,0.08,,,0.10,Wunderground v.1.15,2013-07-02 18:54:00,
2013-07-02 15:00:00,75.6,73.8,30.13,South,190,4.0,4.0,94,0.04,,,0.10,Wunderground v.1.15,2013-07-02 19:00:00,
2013-07-02 15:06:00,75.4,73.6,30.13,South,174,3.0,4.0,94,0.00,,,0.10,Wunderground v.1.15,2013-07-02 19:06:00,
2013-07-02 15:12:00,75.1,73.3,30.13,SSW,205,3.0,6.0,94,0.00,,,0.11,Wunderground v.1.15,2013-07-02 19:12:00,
2013-07-02 15:18:00,75.0,73.2,30.13,SSW,198,3.0,6.0,94,0.00,,,0.11,Wunderground v.1.15,2013-07-02 19:18:00,
2013-07-02 15:24:00,74.9,73.4,30.13,SSW,204,3.0,4.0,95,0.05,,,0.12,Wunderground v.1.15,2013-07-02 19:24:00,
2013-07-02 15:29:00,74.9,73.4,30.13,South,173,4.0,7.0,95,0.05,,,0.12,Wunderground v.1.15,2013-07-02 19:29:00,
2013-07-02 15:35:00,74.6,73.1,30.13,SSW,196,4.0,9.0,95,0.04,,,0.13,Wunderground v.1.15,2013-07-02 19:35:00,
2013-07-02 15:41:00,74.4,72.9,30.13,SSW,209,4.0,9.0,95,0.04,,,0.13,Wunderground v.1.15,2013-07-02 19:41:00,
2013-07-02 15:47:00,74.5,73.3,30.13,SW,221,3.0,9.0,96,0.06,,,0.14,Wunderground v.1.15,2013-07-02 19:47:00,
2013-07-02 15:53:00,74.4,73.2,30.12,South,186,3.0,9.0,96,0.06,,,0.14,Wunderground v.1.15,2013-07-02 19:53:00,
2013-07-02 15:59:00,74.3,73.1,30.12,SSW,200,3.0,9.0,96,0.06,,,0.15,Wunderground v.1.15,2013-07-02 19:59:00,
2013-07-02 16:05:00,74.3,73.1,30.12,South,188,3.0,3.0,96,0.09,,,0.16,Wunderground v.1.15,2013-07-02 20:05:00,
2013-07-02 16:11:00,74.2,73.0,30.12,SSW,195,3.0,4.0,96,0.07,,,0.16,Wunderground v.1.15,2013-07-02 20:11:00,
2013-07-02 16:17:00,74.1,72.9,30.12,SSW,203,3.0,8.0,96,0.04,,,0.16,Wunderground v.1.15,2013-07-02 20:17:00,
2013-07-02 16:22:00,74.2,73.0,30.12,South,186,3.0,4.0,96,0.00,,,0.16,Wunderground v.1.15,2013-07-02 20:22:00,
2013-07-02 16:28:00,74.1,72.9,30.12,SSE,161,3.0,5.0,96,0.00,,,0.16,Wunderground v.1.15,2013-07-02 20:28:00,
2013-07-02 16:34:00,74.0,72.8,30.12,SSW,192,2.0,9.0,96,0.00,,,0.17,Wunderground v.1.15,2013-07-02 20:34:00,
2013-07-02 16:40:00,74.0,72.8,30.12,SSW,195,2.0,9.0,96,0.00,,,0.17,Wunderground v.1.15,2013-07-02 20:40:00,
2013-07-02 16:46:00,73.8,72.6,30.12,SSW,198,2.0,9.0,96,0.00,,,0.17,Wunderground v.1.15,2013-07-02 20:46:00,
2013-07-02 16:52:00,73.8,72.6,30.12,South,188,2.0,9.0,96,0.04,,,0.18,Wunderground v.1.15,2013-07-02 20:52:00,
2013-07-02 16:58:00,73.8,72.9,30.12,ESE,117,2.0,9.0,97,0.04,,,0.18,Wunderground v.1.15,2013-07-02 20:58:00,
2013-07-02 17:04:00,73.8,72.9,30.11,SSW,208,2.0,4.0,97,0.04,,,0.19,Wunderground v.1.15,2013-07-02 21:04:00,
2013-07-02 17:10:00,73.8,72.9,30.11,SSW,208,2.0,2.0,97,0.09,,,0.20,Wunderground v.1.15,2013-07-02 21:10:00,
2013-07-02 17:15:00,73.9,73.0,30.12,SSW,208,1.0,2.0,97,0.09,,,0.20,Wunderground v.1.15,2013-07-02 21:15:00,
2013-07-02 17:21:00,73.7,72.8,30.12,SSW,208,1.0,2.0,97,0.05,,,0.20,Wunderground v.1.15,2013-07-02 21:21:00,
2013-07-02 17:27:00,73.7,72.8,30.11,SSE,165,2.0,6.0,97,0.00,,,0.20,Wunderground v.1.15,2013-07-02 21:27:00,
2013-07-02 17:33:00,73.6,72.4,30.11,SSW,211,4.0,10.0,96,0.00,,,0.21,Wunderground v.1.15,2013-07-02 21:33:00,
2013-07-02 17:39:00,73.8,72.9,30.11,South,190,3.0,10.0,97,0.00,,,0.21,Wunderground v.1.15,2013-07-02 21:39:00,
2013-07-02 17:45:00,73.8,72.9,30.11,West,260,2.0,10.0,97,0.00,,,0.21,Wunderground v.1.15,2013-07-02 21:45:00,
2013-07-02 17:51:00,73.7,72.5,30.10,SSE,167,3.0,10.0,96,0.00,,,0.21,Wunderground v.1.15,2013-07-02 21:51:00,
2013-07-02 17:57:00,73.7,72.8,30.10,South,188,2.0,10.0,97,0.00,,,0.21,Wunderground v.1.15,2013-07-02 21:57:00,
2013-07-02 18:03:00,73.7,72.8,30.10,SSW,194,2.0,2.0,97,0.00,,,0.21,Wunderground v.1.15,2013-07-02 22:03:00,
2013-07-02 18:09:00,73.7,72.5,30.10,SSE,161,1.0,3.0,96,0.00,,,0.21,Wunderground v.1.15,2013-07-02 22:09:00,
2013-07-02 18:14:00,73.6,72.4,30.11,West,259,1.0,6.0,96,0.00,,,0.21,Wunderground v.1.15,2013-07-02 22:14:00,
2013-07-02 18:20:00,73.5,72.3,30.11,SE,138,1.0,3.0,96,0.00,,,0.21,Wunderground v.1.15,2013-07-02 22:20:00,
2013-07-02 18:26:00,73.4,72.2,30.12,South,180,1.0,3.0,96,0.00,,,0.22,Wunderground v.1.15,2013-07-02 22:26:00,
2013-07-02 18:32:00,73.3,72.1,30.12,South,190,2.0,9.0,96,0.00,,,0.22,Wunderground v.1.15,2013-07-02 22:32:00,
2013-07-02 18:38:00,73.3,72.1,30.12,SSW,198,3.0,9.0,96,0.00,,,0.22,Wunderground v.1.15,2013-07-02 22:38:00,
2013-07-02 18:44:00,73.3,72.1,30.12,SSW,198,1.0,9.0,96,0.00,,,0.22,Wunderground v.1.15,2013-07-02 22:44:00,
2013-07-02 18:50:00,73.2,72.0,30.13,SSW,198,1.0,9.0,96,0.00,,,0.23,Wunderground v.1.15,2013-07-02 22:50:00,
2013-07-02 18:55:00,73.2,72.0,30.13,SSW,208,3.0,9.0,96,0.00,,,0.23,Wunderground v.1.15,2013-07-02 22:55:00,
2013-07-02 19:00:00,73.1,72.2,30.13,SSW,200,3.0,3.0,97,0.00,,,0.23,Wunderground v.1.15,2013-07-02 23:00:00,
2013-07-02 19:06:00,73.1,72.2,30.13,SW,218,3.0,6.0,97,0.00,,,0.23,Wunderground v.1.15,2013-07-02 23:06:00,
2013-07-02 19:12:00,73.0,72.1,30.13,South,189,4.0,5.0,97,0.00,,,0.23,Wunderground v.1.15,2013-07-02 23:12:00,
2013-07-02 19:17:00,73.0,72.1,30.13,SSW,208,3.0,7.0,97,0.00,,,0.23,Wunderground v.1.15,2013-07-02 23:17:00,
2013-07-02 19:23:00,73.0,72.1,30.13,SSW,194,3.0,3.0,97,0.00,,,0.23,Wunderground v.1.15,2013-07-02 23:23:00,
2013-07-02 19:28:00,72.9,72.0,30.14,SSW,197,3.0,5.0,97,0.00,,,0.24,Wunderground v.1.15,2013-07-02 23:28:00,
2013-07-02 19:31:00,72.9,72.0,30.14,SSW,196,3.0,8.0,97,0.00,,,0.24,Wunderground v.1.15,2013-07-02 23:31:00,
2013-07-02 19:37:00,72.9,72.0,30.14,SSW,196,3.0,8.0,97,0.00,,,0.24,Wunderground v.1.15,2013-07-02 23:37:00,
2013-07-02 19:43:00,72.9,72.0,30.14,SSW,196,2.0,8.0,97,0.00,,,0.24,Wunderground v.1.15,2013-07-02 23:43:00,
2013-07-02 19:48:00,72.9,72.0,30.14,SSW,207,2.0,8.0,97,0.00,,,0.24,Wunderground v.1.15,2013-07-02 23:48:00,
2013-07-02 19:53:00,72.8,71.9,30.14,SSW,207,3.0,8.0,97,0.00,,,0.24,Wunderground v.1.15,2013-07-02 23:53:00,
2013-07-02 19:54:00,72.8,71.9,30.14,SSW,207,3.0,8.0,97,0.00,,,0.24,Wunderground v.1.15,2013-07-02 23:54:00,
2013-07-02 20:00:00,72.8,71.9,30.14,SSW,202,2.0,3.0,97,0.00,,,0.24,Wunderground v.1.15,2013-07-03 00:00:00,
2013-07-02 20:06:00,72.8,71.9,30.14,SSW,203,1.0,3.0,97,0.00,,,0.24,Wunderground v.1.15,2013-07-03 00:06:00,
2013-07-02 20:07:00,72.7,71.8,30.14,SSW,203,1.0,3.0,97,0.00,,,0.24,Wunderground v.1.15,2013-07-03 00:07:00,
2013-07-02 20:08:00,72.7,71.8,30.15,SSW,203,1.0,3.0,97,0.00,,,0.24,Wunderground v.1.15,2013-07-03 00:08:00,
2013-07-02 20:13:00,72.7,71.8,30.15,SSW,203,1.0,2.0,97,0.00,,,0.25,Wunderground v.1.15,2013-07-03 00:13:00,
2013-07-02 20:19:00,72.7,71.8,30.15,SSW,202,2.0,3.0,97,0.00,,,0.25,Wunderground v.1.15,2013-07-03 00:19:00,
2013-07-02 20:25:00,72.6,71.7,30.15,SSW,202,2.0,2.0,97,0.00,,,0.25,Wunderground v.1.15,2013-07-03 00:25:00,
2013-07-02 20:28:00,72.6,71.7,30.15,SSW,202,1.0,2.0,97,0.00,,,0.25,Wunderground v.1.15,2013-07-03 00:28:00,
2013-07-02 20:33:00,72.6,71.7,30.15,ESE,104,0.0,8.0,97,0.00,,,0.25,Wunderground v.1.15,2013-07-03 00:33:00,
2013-07-02 20:34:00,72.6,71.7,30.16,ESE,104,0.0,8.0,97,0.00,,,0.25,Wunderground v.1.15,2013-07-03 00:34:00,
2013-07-02 20:39:00,72.6,72.0,30.16,ENE,76,0.0,8.0,98,0.00,,,0.25,Wunderground v.1.15,2013-07-03 00:39:00,
2013-07-02 20:45:00,72.6,72.0,30.16,East,84,0.0,8.0,98,0.00,,,0.25,Wunderground v.1.15,2013-07-03 00:45:00,
2013-07-02 20:51:00,72.6,72.0,30.16,East,84,0.0,8.0,98,0.00,,,0.25,Wunderground v.1.15,2013-07-03 00:51:00,
2013-07-02 20:57:00,72.6,72.0,30.16,East,84,0.0,8.0,98,0.00,,,0.25,Wunderground v.1.15,2013-07-03 00:57:00,
2013-07-02 21:00:00,72.6,72.0,30.16,SE,146,0.0,2.0,98,0.00,,,0.25,Wunderground v.1.15,2013-07-03 01:00:00,
2013-07-02 21:05:00,72.6,72.0,30.16,SE,146,0.0,2.0,98,0.00,,,0.25,Wunderground v.1.15,2013-07-03 01:05:00,
2013-07-02 21:11:00,72.6,72.0,30.16,SE,146,0.0,0.0,98,0.00,,,0.26,Wunderground v.1.15,2013-07-03 01:11:00,
2013-07-02 21:17:00,72.6,72.0,30.16,SE,146,0.0,0.0,98,0.00,,,0.26,Wunderground v.1.15,2013-07-03 01:17:00,
2013-07-02 21:23:00,72.5,71.9,30.17,SE,146,0.0,0.0,98,0.00,,,0.26,Wunderground v.1.15,2013-07-03 01:23:00,
2013-07-02 21:29:00,72.5,71.9,30.17,SE,146,0.0,0.0,98,0.00,,,0.26,Wunderground v.1.15,2013-07-03 01:29:00,
2013-07-02 21:30:00,72.5,71.9,30.17,SE,146,0.0,0.0,98,0.00,,,0.26,Wunderground v.1.15,2013-07-03 01:30:00,
2013-07-02 21:36:00,72.4,71.8,30.17,SE,146,0.0,4.0,98,0.00,,,0.27,Wunderground v.1.15,2013-07-03 01:36:00,
2013-07-02 21:41:00,72.4,71.8,30.17,SE,146,0.0,4.0,98,0.09,,,0.28,Wunderground v.1.15,2013-07-03 01:41:00,
2013-07-02 21:47:00,72.3,71.7,30.17,SE,146,0.0,4.0,98,0.08,,,0.28,Wunderground v.1.15,2013-07-03 01:47:00,
2013-07-02 21:51:00,72.3,71.4,30.17,SE,146,0.0,4.0,97,0.07,,,0.29,Wunderground v.1.15,2013-07-03 01:51:00,
2013-07-02 21:53:00,72.3,71.4,30.17,SE,146,0.0,4.0,97,0.13,,,0.29,Wunderground v.1.15,2013-07-03 01:53:00,
2013-07-02 21:59:00,72.3,71.4,30.17,SE,146,0.0,4.0,97,0.11,,,0.31,Wunderground v.1.15,2013-07-03 01:59:00,
2013-07-02 22:05:00,72.3,71.7,30.17,SE,146,0.0,0.0,98,0.10,,,0.32,Wunderground v.1.15,2013-07-03 02:05:00,
2013-07-02 22:11:00,72.3,71.7,30.17,SE,146,0.0,0.0,98,0.09,,,0.32,Wunderground v.1.15,2013-07-03 02:11:00,
2013-07-02 22:16:00,72.3,71.7,30.17,SE,146,0.0,0.0,98,0.05,,,0.32,Wunderground v.1.15,2013-07-03 02:16:00,
2013-07-02 22:22:00,72.3,71.7,30.17,SE,146,0.0,0.0,98,0.00,,,0.32,Wunderground v.1.15,2013-07-03 02:22:00,
2013-07-02 22:28:00,72.3,71.7,30.17,SE,146,0.0,0.0,98,0.00,,,0.32,Wunderground v.1.15,2013-07-03 02:28:00,
2013-07-02 22:34:00,72.3,71.7,30.17,SE,146,0.0,3.0,98,0.00,,,0.32,Wunderground v.1.15,2013-07-03 02:34:00,
2013-07-02 22:40:00,72.3,71.7,30.17,SE,146,0.0,3.0,98,0.00,,,0.32,Wunderground v.1.15,2013-07-03 02:40:00,
2013-07-02 22:46:00,72.4,71.8,30.17,SE,146,0.0,3.0,98,0.00,,,0.32,Wunderground v.1.15,2013-07-03 02:46:00,
2013-07-02 22:48:00,72.3,71.7,30.17,SE,146,0.0,3.0,98,0.00,,,0.32,Wunderground v.1.15,2013-07-03 02:48:00,
2013-07-02 22:54:00,72.4,71.8,30.17,SE,146,0.0,3.0,98,0.00,,,0.32,Wunderground v.1.15,2013-07-03 02:54:00,
2013-07-02 23:00:00,72.4,71.8,30.17,SE,146,0.0,0.0,98,0.00,,,0.32,Wunderground v.1.15,2013-07-03 03:00:00,
2013-07-02 23:02:00,72.4,71.8,30.17,SE,146,0.0,1.0,98,0.00,,,0.32,Wunderground v.1.15,2013-07-03 03:02:00,
2013-07-02 23:08:00,72.4,71.8,30.17,SE,146,0.0,1.0,98,0.00,,,0.32,Wunderground v.1.15,2013-07-03 03:08:00,
2013-07-02 23:14:00,72.4,71.8,30.17,SE,146,0.0,0.0,98,0.00,,,0.32,Wunderground v.1.15,2013-07-03 03:14:00,
2013-07-02 23:20:00,72.4,71.8,30.17,SSW,192,0.0,3.0,98,0.00,,,0.32,Wunderground v.1.15,2013-07-03 03:20:00,
2013-07-02 23:26:00,72.4,71.8,30.17,South,178,1.0,3.0,98,0.00,,,0.32,Wunderground v.1.15,2013-07-03 03:26:00,
2013-07-02 23:32:00,72.4,71.8,30.16,South,178,1.0,1.0,98,0.00,,,0.32,Wunderground v.1.15,2013-07-03 03:32:00,
2013-07-02 23:38:00,72.5,71.9,30.16,SSE,163,1.0,5.0,98,0.00,,,0.32,Wunderground v.1.15,2013-07-03 03:38:00,
2013-07-02 23:40:00,72.4,71.8,30.16,SSE,157,1.0,1.0,98,0.00,,,0.32,Wunderground v.1.15,2013-07-03 03:40:00,
2013-07-02 23:44:00,72.4,71.8,30.16,South,169,1.0,2.0,98,0.00,,,0.32,Wunderground v.1.15,2013-07-03 03:44:00,
2013-07-02 23:50:00,72.4,71.8,30.16,South,171,1.0,2.0,98,0.00,,,0.32,Wunderground v.1.15,2013-07-03 03:50:00,
2013-07-02 23:51:00,72.4,71.8,30.16,South,180,1.0,2.0,98,0.00,,,0.32,Wunderground v.1.15,2013-07-03 03:51:00,
2013-07-02 23:56:00,72.5,71.9,30.16,SW,220,2.0,4.0,98,0.00,,,0.32,Wunderground v.1.15,2013-07-03 03:56:00,